TimePDT,TemperatureF,Dew PointF,Humidity,Sea Level PressureIn,VisibilityMPH,Wind Direction,Wind SpeedMPH,Gust SpeedMPH,PrecipitationIn,Events,Conditions,WindDirDegrees,DateUTC
12:53 AM,78.1,55.0,45,29.80,10.0,NW,8.1,-,N/A,,Clear,310,2013-09-08 07:53:00
1:53 AM,77.0,51.1,40,29.80,10.0,NW,10.4,-,N/A,,Clear,310,2013-09-08 08:53:00
2:53 AM,75.9,51.1,42,29.80,10.0,NW,9.2,-,N/A,,Clear,310,2013-09-08 09:53:00
3:53 AM,72.0,51.1,48,29.80,10.0,NW,8.1,-,N/A,,Clear,320,2013-09-08 10:53:00
4:53 AM,72.0,51.1,48,29.80,10.0,NNW,5.8,-,N/A,,Clear,340,2013-09-08 11:53:00
5:53 AM,71.1,51.1,49,29.81,10.0,North,5.8,-,N/A,,Clear,350,2013-09-08 12:53:00
6:53 AM,68.0,53.1,59,29.83,10.0,Calm,Calm,-,N/A,,Clear,0,2013-09-08 13:53:00
7:53 AM,73.0,51.1,46,29.84,10.0,NNW,3.5,-,N/A,,Clear,340,2013-09-08 14:53:00
8:53 AM,78.1,51.1,39,29.84,10.0,North,3.5,-,N/A,,Clear,350,2013-09-08 15:53:00
9:53 AM,81.0,50.0,34,29.83,10.0,Calm,Calm,-,N/A,,Clear,0,2013-09-08 16:53:00
10:53 AM,86.0,50.0,29,29.83,10.0,West,4.6,-,N/A,,Clear,280,2013-09-08 17:53:00
11:53 AM,91.0,50.0,24,29.81,8.0,Calm,Calm,-,N/A,,Clear,0,2013-09-08 18:53:00
12:53 PM,93.9,51.1,23,29.79,8.0,Variable,6.9,-,N/A,,Clear,0,2013-09-08 19:53:00
1:53 PM,96.1,50.0,21,29.77,8.0,WNW,5.8,-,N/A,,Clear,300,2013-09-08 20:53:00
2:53 PM,98.1,46.9,18,29.75,9.0,Variable,5.8,-,N/A,,Clear,0,2013-09-08 21:53:00
3:53 PM,100.0,44.1,15,29.72,8.0,North,5.8,-,N/A,,Clear,10,2013-09-08 22:53:00
4:53 PM,100.0,46.9,16,29.71,7.0,North,5.8,-,N/A,,Clear,360,2013-09-08 23:53:00
5:53 PM,99.0,48.0,18,29.70,8.0,NNE,5.8,-,N/A,,Clear,20,2013-09-09 00:53:00
6:53 PM,95.0,48.9,21,29.69,9.0,North,5.8,-,N/A,,Clear,350,2013-09-09 01:53:00
7:53 PM,90.0,52.0,27,29.70,9.0,NW,4.6,-,N/A,,Clear,320,2013-09-09 02:53:00
8:53 PM,86.0,54.0,33,29.71,7.0,WNW,3.5,-,N/A,,Clear,300,2013-09-09 03:53:00
9:53 PM,87.1,53.1,31,29.73,6.0,WNW,5.8,-,N/A,,Haze,300,2013-09-09 04:53:00
10:53 PM,84.0,54.0,35,29.74,8.0,WNW,6.9,-,N/A,,Clear,300,2013-09-09 05:53:00
11:53 PM,82.9,52.0,34,29.74,10.0,WNW,6.9,-,N/A,,Clear,300,2013-09-09 06:53:00